千帆星座-125(QIANFAN-125)

导读

QIANFAN-125(NORAD编号68652)是中国千帆星座的组网卫星之一,该卫星于2026年4月7日在海南商业航天发射场,由长征八号火箭发射升空,此次任务共将包括QIANFAN-125在内的18颗千帆卫星送入预定轨道。 千帆星座是中国两大低轨卫星互联网星座之一,对标星链计划,目标部署数千颗卫星(远期规划超万颗),旨在为全球提供高速、安全、可靠的太空宽带互联网服务,本次发射完成后,千帆星座已成功组网卫星数量达到126颗,是其今年首次组网发射任务。

Basic Information
目录编号:
68652
目录名称:
QIANFAN-125
国际标识:
2026-075S
轨道中心:
EARTH
卫星名称:
千帆星座-125
卫星全名:
千帆星座-125(QIANFAN-125)
卫星状态:
在轨 (已飞行112 天)
发射日期:
2026-04-07 UTC
国别 :
中国 (CN)
星等 :
--
Orbit Information
数据来源 国际轨道数据 AOE轨道数据
星历时间 2026-07-28T02:53:12+0800
9小时前
查看轨道信息
2026-07-25T09:00:00+0800
3天前
查看轨道信息
半长轴 7446.661km 7446.664km
偏心率 0.0002071 0.0002108
轨道倾角 88.992° 88.991°
近地点辐角 105.319° 103.804°
升交点赤经 316.847° 317.126°
平近点角 254.819° 232.181°
近地点 1066.981km 1066.957km
远地点 1070.067km 1070.097km
周期 106.586分钟 106.587分钟
每日圈数 13.510158 13.510149
Detailed Information
卫星平台:
125
覆盖范围:
全球
运营商:
上海垣信卫星科技有限公司
运营商所在国:
中国
使用方式:
暂无
Satellite Introduction
千帆星座,也被称为“G60星链”计划,是中国版“星链”的重要组成部分,旨在打造一个由1.4万多颗低轨宽频多媒体卫星构成的庞大星座。千帆星座计划由上海垣信卫星科技有限公司负责实施,于2023年启动建设。该项目是我国第二个低轨卫星大星座,旨在通过构建庞大的卫星网络,为全球用户提供高质量的通信和宽带互联网服务。
2D Orbit Map
3D Orbit Map
Orbit Altitude Analysis Chart
Orbit Inclination Analysis Chart
Orbit Comprehensive Analysis Chart
View Comprehensive Chart